Location: Unspecified
(0.0000°N, 0.0000°E)
Time: 18:49:07
(UTC+00:00)

Envisat - Pass Details

Date: 13 December 2017
Orbit: 764 x 766 km, 98.2° (Epoch: 10 December)

Event Time Altitude Azimuth Distance (km) Brightness Sun altitude
Rises 20:14:55 0° 174° (S) 3,230 6.5 -31.9°
Reaches altitude 10° 20:17:14 10° 177° (S) 2,302 5.7 -32.4°
Enters shadow 20:19:21 25° 183° (S) 1,505 4.7 -32.9°
